AirNav   Everest Fuels
 
 1632 users online  

56NJ Blue Jay Heliport
Mount Holly, New Jersey, USA

GOING TO MOUNT HOLLY?


FAA INFORMATION EFFECTIVE 10 SEPTEMBER 2020

Location

FAA Identifier: 56NJ
Lat/Long: 40-00-24.4020N 074-51-48.5940W
40-00.406700N 074-51.809900W
40.0067783,-74.8634983
(estimated)
Elevation: 28 ft. / 9 m (estimated)
Variation: 12W (1985)
From city: 1 mile W of MOUNT HOLLY, NJ
Time zone: UTC -4 (UTC -5 during Standard Time)
Zip code: 08060

Heliport Operations

Heliport use: Private use. Permission required prior to landing
Activation date: 07/1984
Control tower: no
ARTCC: NEW YORK CENTER
FSS: MILLVILLE FLIGHT SERVICE STATION
Attendance: UNATNDD
Wind indicator: no
Segmented circle: no

Heliport Communications

WX ASOS at VAY (4 nm S): 119.325 (609-267-1176)
WX ASOS at PNE (8 nm NW): 121.15 (215-677-0146)
WX ASOS at TTN (16 nm N): 126.775 (609-538-8690)
WX ASOS at PHL (19 nm SW): PHONE 215-492-9617

Nearby radio navigation aids

VOR radial/distance  VOR name  Freq  Var
GXUr281/12.3MC GUIRE VORTAC110.6012W
ARDr182/14.9YARDLEY VOR/DME108.2010W
RBVr245/20.6ROBBINSVILLE VORTAC113.8010W
CYNr310/22.9COYLE VORTAC113.4010W
VCNr020/28.5CEDAR LAKE VOR/DME115.2010W
OODr052/30.1WOODSTOWN VORTAC112.8010W
PTWr121/34.5POTTSTOWN VORTAC116.5009W
SBJr199/35.0SOLBERG VOR/DME112.9010W
ACYr348/35.6ATLANTIC CITY VORTAC117.1510W
COLr251/37.1COLTS NECK VOR/DME115.4011W
MXEr091/37.5MODENA VORTAC113.2009W
DQOr070/39.5DUPONT VORTAC114.0010W

 
NDB name  Hdg/Dist  Freq  Var  ID
AMBLER122/20.627512WING .. -. --.
LAKEHURST276/24.439611WNEL -. . .-..
RAINBOW031/37.536311WRNB .-. -. -...

Heliport Services

Runway Information

Helipad H1

Dimensions: 15 x 15 ft. / 5 x 5 m
Surface: turf
Traffic pattern: leftleft

Heliport Ownership and Management from official FAA records

Ownership: Privately-owned
Owner: BLUE JAY ASSOCIATES
RT 1 BOX 1038 RANCOCAS RD
MOUNT HOLLY, NJ 08060
Phone 609-267-3300
Manager: ROBERT WOODMAN
RT 1 BOX 1038 RANCOCAS RD
MOUNT HOLLY, NJ 08060
Phone 609-267-3300

Heliport Operational Statistics

Aircraft based on the field: 1
Helicopters: 1
    

Additional Remarks

A52-H1 100' ANTENNA 150' NORTH 30' TREES 100' WEST.
FOR CD CTC PHILADELPHIA APCH AT 800-354-9884.

Instrument Procedures

There are no published instrument procedures at 56NJ.

Some nearby airports with instrument procedures:

KVAY - South Jersey Regional Airport (4 nm S)
N14 - Flying W Airport (5 nm SE)
KPNE - Northeast Philadelphia Airport (8 nm NW)
KWRI - McGuire Field (Joint Base Mc Guire Dix Lakehurst) Airport (13 nm E)
19N - Camden County Airport (14 nm S)
KTTN - Trenton Mercer Airport (16 nm N)
N87 - Trenton-Robbinsville Airport (17 nm NE)
KPHL - Philadelphia International Airport (19 nm SW)
17N - Cross Keys Airport (20 nm SW)
 
Loc | Ops | Rwys | IFR | FBO | Links
Com | Nav | Svcs | Stats | Notes
Area around 56NJ (Blue Jay Heliport)
 
Road maps at: MapQuest Bing Google
 
Aerial photo
No photo
 
Sectional chart

 
Airport distance calculator
Flying to Blue Jay Heliport? Find the distance to fly.

From to 56NJ

Sunrise and sunset
Times for 24-Sep-2020
 Local
(UTC-4)
 Zulu
(UTC)
Morning civil twilight06:2410:24
Sunrise06:5110:51
Sunset18:5122:51
Evening civil twilight19:1823:18

Current date and time
Zulu (UTC)  24-Sep-2020 19:04:54
Local (UTC-4)  24-Sep-2020 15:04:54
 
METAR
KVAY 
5nm S 
ASOS 119.325 609-267-1176
241854Z AUTO VRB03KT 10SM CLR 23/15 A2999 RMK AO2 SLP155 T02330150
KPNE 
8nm NW 
241854Z VRB04KT 10SM CLR 24/11 A3001 RMK AO2 SLP160 T02440111
KWRI 
13nm E 
241856Z AUTO 20004KT 10SM SCT190 24/15 A2999 RMK AO2 SLP155 T02350153 CHINO RWY24 $
KTTN 
17nm N 
ASOS 133.70 609-538-8690
241853Z 23003KT 10SM CLR 23/13 A2999 RMK AO2 SLP148 T02280128
KPHL 
19nm SW 
241854Z 16003KT 10SM BKN170 OVC250 23/14 A2999 RMK AO2 SLP156 T02280139
TAF
KPNE 
8nm NW 
241738Z 2418/2518 VRB03KT P6SM BKN190 FM250500 VRB03KT P6SM SCT150 FM251500 22005KT P6SM SCT250
KWRI 
13nm E 
241000Z 2410/2516 VRB06KT 9999 SCT200 QNH2994INS BECMG 2413/2414 24006KT 9999 BKN200 QNH2997INS BECMG 2421/2422 21005KT 9999 BKN150 QNH2998INS BECMG 2504/2505 20005KT 9999 SCT050 BKN150 QNH3003INS TX26/2420Z TN12/2410Z
KTTN 
17nm N 
241738Z 2418/2518 21005KT P6SM BKN200 FM250500 VRB03KT P6SM BKN150 FM251400 VRB04KT P6SM SCT200
KPHL 
19nm SW 
241738Z 2418/2524 22004KT P6SM BKN190 OVC250 FM250600 VRB04KT P6SM BKN050 FM251300 21004KT P6SM SCT130 FM251800 23005KT P6SM SCT200
NOTAMs
Click for the latest NOTAMs
NOTAMs are issued by the DoD/FAA and will open in a separate window not controlled by AirNav.

 

 
 

Would you like to see your business listed on this page?

 If your business provides an interesting product or service to pilots, flight crews, aircraft, or users of the Blue Jay Heliport, you should consider listing it here.  To start the listing process, click on the button below
 
Add a business
 

Other Pages about Blue Jay Heliport

Update a link
 
Copyright © AirNav, LLC. All rights reserved. Privacy Policy  Contact